Regional Weather Roundup
Issued by NWS

Home | Current Version | Previous Version | Graphics & Text | Print | Product List | Glossary On
Versions: 1 2 3 4 5 6 7 8 9 10 11 12 13 14 15 16 17 18 19 20 21 22 23 24 25 26 27 28 29 30 31 32 33 34 35 36 37 38 39 40 41 42 43 44 45 46 47 48 49 50
000
ASUS45 KSLC 021910
RWRUT

UTAH REGIONAL WEATHER ROUNDUP
NATIONAL WEATHER SERVICE SALT LAKE CITY UT
100 PM MDT THU JUL 02 2015

UTZ001>011-023>025-022000-

NORTHERN UTAH

CITY           SKY/WX    TMP DP  RH WIND       PRES   REMARKS
BRIGHAM CITY   SUNNY     91  39  16 CALM      30.07
HILL AFB       SUNNY     89  50  25 SW6       30.11F
LOGAN          SUNNY     90  44  20 CALM      30.08F
OGDEN          SUNNY     91  47  21 CALM      30.08F
PROVO AIRPORT  MOSUNNY   88  54  31 SW8       30.10F
SALT LAKE CITY MOSUNNY   94  44  17 W12       30.06F HX  90
VERNAL         SUNNY     88  44  21 CALM      30.12F
WENDOVER       SUNNY     97  46  17 E14       30.07F HX  93
HEBER CITY     SUNNY     90  39  17 CALM      30.16
WEST JORDAN    SUNNY     93  43  17 N9G20     30.10F

$$

UTZ012>022-026-027-022000-

SOUTHERN/CENTRAL UTAH

CITY           SKY/WX    TMP DP  RH WIND       PRES   REMARKS
BLANDING       SUNNY     85  55  35 SE5       30.24
BRYCE CANYON   MOSUNNY   83  45  26 N6        30.34F
CEDAR CITY     PTSUNNY   85  44  23 CALM      30.19F
DELTA          SUNNY     94  40  15 NE5       30.10
HANKSVILLE     PTSUNNY   91  41  17 W3        30.06
MILFORD        MOSUNNY   92  47  21 VRB5      30.12F
MOAB/CYNLANDS  SUNNY     90  51  26 S6        30.04F
PRICE          MOSUNNY   90  39  16 S9G17     30.16F
ST GEORGE      CLEAR     93  57  29 NW3       30.00F HX  92
KANAB          SUNNY     90  59  35 SW8       30.18F

$$

REGIONAL REPORTS     COLORADO/ARIZONA

CITY           SKY/WX    TMP DP  RH WIND       PRES   REMARKS
CRAIG, CO      SUNNY     86  47  25 S3        30.20F
GRAND JUNCTION PTSUNNY   90  49  24 NW8       30.08F
RIFLE          MOSUNNY   89  50  26 NW7       30.12F
MONTROSE       CLOUDY    88  51  28 NW8       30.17F
CORTEZ         SUNNY     87  53  31 SW10G18   30.16F
PAGE, AZ       MOSUNNY   93  51  23 CALM      30.06F HX  90
GRAND CANYON   SUNNY    N/A N/A N/A SW8       30.30S
KINGMAN        SUNNY     93  52  24 SW8       30.07F HX  90
FLAGSTAFF      MOSUNNY   78  53  41 S6        30.31F

$$

REGIONAL REPORTS    NEVADA/IDAHO/WYOMING

CITY           SKY/WX    TMP DP  RH WIND       PRES   REMARKS
LAS VEGAS, NV  MOSUNNY   96  61  31 VRB5      29.92F HX  96
ELY            CLOUDY    82  45  27 CALM      30.27S
ELKO           SUNNY     93  47  20 E8        30.15F
POCATELLO, ID  SUNNY     88  54  31 VRB7      30.11F
BURLEY         SUNNY     88  46  23 CALM      30.08F
EVANSTON, WY   SUNNY     85  39  19 W9        30.28F
ROCK SPRINGS   SUNNY     82  50  32 E10       30.26F
KEMMERER       MOSUNNY   82  36  18 S6        30.30

$$



USA.gov is the U.S. government's official web portal to all federal, state and local government web resources and services.